Regional Weather Roundup
Issued by NWS

Home | Current Version | Previous Version | Text Only | Print | Product List | Glossary On
Versions: 1 2 3 4 5 6 7 8 9 10 11 12 13 14 15 16 17 18 19 20 21 22 23 24 25 26 27 28 29 30 31 32 33 34 35 36 37 38 39 40 41 42 43 44 45 46 47 48 49 50
905
ASUS44 KBMX 040410
RWRAL

ALABAMA REGIONAL WEATHER ROUNDUP
NATIONAL WEATHER SERVICE BIRMINGHAM AL
1000 PM CST SAT DEC 03 2016

NOTE: "FAIR" INDICATES FEW OR NO CLOUDS BELOW 12,000 FEET
WITH NO SIGNIFICANT WEATHER AND/OR OBSTRUCTIONS TO VISIBILITY.

THE REMARK "TC" DENOTES TEMPERATURE IN DEGREES CELSIUS.

ALZ001>011-014-016>018-020-040500-
NORTH ALABAMA

CITY           SKY/WX    TMP DP  RH WIND       PRES   REMARKS
MUSCLE SHOALS  CLOUDY    43  39  86 E8        30.19F
HUNTSVILLE     LGT RAIN  44  42  93 NE7       30.19F
DECATUR        LGT RAIN  42  42 100 NE6       30.20S FOG
HALEYVILLE     RAIN      41  40  96 E7        30.18R FOG
GADSDEN        LGT RAIN  44  42  93 NE12      30.19F FOG
$$

ALZ012-013-022-023-030>036-040>044-040500-
WEST CENTRAL ALABAMA

CITY           SKY/WX    TMP DP  RH WIND       PRES   REMARKS
TUSCALOOSA     CLOUDY    46  43  89 NE6       30.13F
$$

ALZ015-024>027-033>036-040>044-040500-
CENTRAL ALABAMA

CITY           SKY/WX    TMP DP  RH WIND       PRES   REMARKS
BIRMINGHAM     CLOUDY    44  42  93 NE8       30.16F
MONTGOMERY     CLOUDY    52  37  56 E10       30.13F
SHELBY CO ARPT CLOUDY    45  44  97 NE6       30.12F
MAXWELL AFB    CLOUDY    51  40  67 E10       30.12F
GREENVILLE     CLOUDY    53  34  48 E8        30.09F
$$

ALZ019-021-028-029-037-038-045>048-040500-
EAST CENTRAL ALABAMA

CITY           SKY/WX    TMP DP  RH WIND       PRES   REMARKS
ANNISTON       LGT RAIN  44  42  93 NE8       30.18S
ALEXANDER CITY MOCLDY    50  47  92 E8        30.14F
AUBURN         CLOUDY    48  41  76 E8        30.17S
$$

ALZ051>064-040500-
SOUTHWEST ALABAMA

CITY           SKY/WX    TMP DP  RH WIND       PRES   REMARKS
MOBILE         MOCLDY    58  37  45 E13       30.05F
BROOKLEY FIELD MOCLDY    61  40  45 E14       30.07F
EVERGREEN      CLOUDY    55  33  43 E5        30.10F
$$

ALZ049-050-065>069-040500-
SOUTHEAST ALABAMA

CITY           SKY/WX    TMP DP  RH WIND       PRES   REMARKS
DOTHAN         MOCLDY    56  37  49 E7        30.17R
OZARK          CLOUDY    56  35  45 E8        30.13S
TROY           CLOUDY    53  35  50 E6        30.15F
EUFAULA        MOCLDY    56  35  45 E3        30.13F
$$




USA.gov is the U.S. government's official web portal to all federal, state and local government web resources and services.